[[{"header":{"parameterUnit":"m.s-1","parameterCategory":1,"la1":30.2992,"la2":30.254,"lo1":-89.0895,"lo2":-89.0443,"dy":0.0025,"dx":0.0025,"nx":19,"ny":19,"refTime":"2026-04-15T03:00:00:Z","depth":0,"parameterNumber":2,"parameterNumberName":"U-component_of_WINDS"},"data":[0,0,0,-1.9765,-1.9766,-1.9836,-1.9837,-1.9928,-1.9929,0,0,0,0,0,0,0,0,0,0,0,-1.9745,-1.9746,-1.9764,-1.9766,-1.9836,-1.9837,-1.9928,-1.9929,0,0,0,0,0,0,0,0,0,0,0,-1.9745,-1.9746,-1.9747,-1.9767,-1.9836,-1.9837,-1.9928,-1.9874,0,0,0,0,0,0,0,0,0,0,-1.9806,-1.979,-1.9746,-1.9747,-1.9767,-1.9836,-1.9837,-1.9872,-1.9878,-1.9898,0,-1.9916,0,-1.9924,-1.9935,-1.9936,0,0,0,-1.9765,-1.9785,-1.9802,-1.9747,-1.9768,-1.9836,-1.9804,-1.9875,-1.9882,-1.9905,-1.9917,-1.9921,-1.9926,-1.9936,-1.9937,-2.0057,-2.0058,0,0,-1.9761,-1.9759,-1.9798,-1.9807,-1.9796,-1.9802,-1.9806,-1.9879,-1.9891,-1.9918,-1.9923,-1.9927,-1.9937,-1.9937,-2.0057,-2.0058,0,0,0,-1.9751,-1.9756,-1.9772,-1.9803,-1.9815,-1.9804,-1.9809,-1.9888,-1.9894,-1.9924,-1.9928,-1.9937,-1.9938,-2.0056,-2.0057,-2.0085,0,0,0,-1.9748,-1.975,-1.977,-1.9769,-1.9814,-1.9853,-1.9817,-1.9889,-1.9897,-1.9928,-1.9937,-1.9939,-2.0055,-2.0057,-2.0083,-2.0099,0,0,0,-1.974,-1.9749,-1.976,-1.9769,-1.9799,-1.9852,-1.9861,-1.989,-1.99,-1.9936,-1.994,-2.0055,-2.0056,-2.0081,-2.0095,-2.0129,0,0,0,-1.9731,-1.9784,-1.976,-1.9821,-1.9799,-1.9869,-1.9861,-1.9913,-1.9948,-1.9938,-2.0056,-2.0057,-2.008,-2.0093,-2.0127,-2.0157,-2.0169,0,0,-1.9796,-1.9791,-1.9828,-1.9809,-1.9883,-1.9859,-1.9937,-1.997,-1.9976,-2.003,-2.0033,-2.0084,-2.0095,-2.0129,-2.0241,-2.0251,0,0,0,-1.9848,-1.9873,-1.9894,-1.9927,-1.9954,-1.9979,-2.0001,-2.0014,-2.006,-2.0003,-2.0106,-2.0113,-2.0133,-2.0147,-2.0155,-2.0172,-2.0064,-2.0064,-2.0064,-1.9936,-1.9941,-2.0001,-2.0015,-2.0047,-2.007,-2.0096,-2.0117,-2.0112,-2.0137,-2.0152,-2.022,-2.0236,-2.0243,-2.026,-2.0169,-2.0169,-2.0169,-2.0169,-2.0031,-2.0068,-2.0062,-2.0118,-2.0123,-2.017,-2.0195,-2.019,-2.0234,-2.0208,-2.0226,-2.0196,-2.0253,-2.0269,-2.0172,-2.0171,-2.0171,-2.0171,-2.0171,-2.0088,-2.0107,-2.0122,-2.0171,-2.0208,-2.0221,-2.0264,-2.0267,-2.027,-2.0288,-2.0304,-2.0304,-2.0303,-2.0296,-2.0296,-2.0296,-2.0297,-2.0297,-2.0297,-2.0141,-2.0157,-2.0193,-2.0228,-2.025,-2.0279,-2.0304,-2.0326,-2.035,-2.0349,-2.0349,-2.0342,-2.0258,-2.0237,-2.03,-2.03,-2.0299,-2.0299,-2.0299,-2.0234,-2.0214,-2.0269,-2.0291,-2.0333,-2.0369,-2.0374,-2.0418,-2.0436,-2.0457,-2.0447,-2.0385,-2.038,-2.0373,-2.0355,-2.0446,-2.0446,-2.0446,-2.0446,-2.0281,-2.0279,-2.0337,-2.0372,-2.0407,-2.0417,-2.048,-2.05,-2.0517,-2.0529,-2.0517,-2.0494,-2.0487,-2.0486,-2.0477,-2.046,-2.0576,-2.0576,-2.0576,-2.0338,-2.034,-2.0392,-2.041,-2.0443,-2.0471,-2.053,-2.057,-2.0586,-2.0581,-2.0538,-2.0533,-2.0496,-2.0483,-2.0475,-2.0461,-2.043,0,0]},{"header":{"parameterUnit":"m.s-1","parameterCategory":1,"la1":30.2992,"la2":30.254,"lo1":-89.0895,"lo2":-89.0443,"dy":0.0025,"dx":0.0025,"nx":19,"ny":19,"refTime":"2026-04-15T03:00:00:Z","depth":0,"parameterNumber":3,"parameterNumberName":"V-component_of_WINDS"},"data":[0,0,0,3.1744,3.1746,3.1801,3.1802,3.1881,3.1882,0,0,0,0,0,0,0,0,0,0,0,3.1732,3.1732,3.1744,3.1746,3.1801,3.1802,3.1881,3.1882,0,0,0,0,0,0,0,0,0,0,0,3.1731,3.1732,3.1733,3.1746,3.1801,3.1802,3.1881,3.1836,0,0,0,0,0,0,0,0,0,0,3.178,3.1773,3.1732,3.1733,3.1746,3.1801,3.1802,3.1834,3.1839,3.1859,0,3.1877,0,3.1881,3.1887,3.1888,0,0,0,3.1743,3.1768,3.178,3.1733,3.1747,3.1801,3.1775,3.1836,3.1842,3.1866,3.1878,3.1881,3.1882,3.1888,3.1888,3.2014,3.2014,0,0,3.174,3.1744,3.1776,3.1784,3.1775,3.1774,3.1777,3.184,3.1854,3.1879,3.1883,3.1883,3.1889,3.1889,3.2013,3.2014,0,0,0,3.1733,3.1742,3.1752,3.1781,3.179,3.1775,3.1779,3.1851,3.1854,3.1884,3.1884,3.1889,3.189,3.2012,3.2013,3.2053,0,0,0,3.1731,3.1738,3.1751,3.1754,3.1789,3.1821,3.179,3.185,3.1857,3.1884,3.1889,3.1891,3.2011,3.2013,3.205,3.2072,0,0,0,3.1727,3.1737,3.1747,3.1754,3.1778,3.182,3.1826,3.1851,3.1857,3.1888,3.1891,3.2011,3.2012,3.2048,3.2067,3.2106,0,0,0,3.1724,3.1782,3.1748,3.1812,3.1778,3.1844,3.1826,3.1875,3.1906,3.189,3.2011,3.2013,3.2047,3.2065,3.2104,3.214,3.2155,0,0,3.1799,3.1791,3.1829,3.18,3.1874,3.1835,3.1915,3.1939,3.1938,3.1989,3.1992,3.2051,3.2067,3.2106,3.224,3.2252,0,0,0,3.1854,3.1881,3.19,3.1929,3.1949,3.1968,3.198,3.1989,3.2032,3.1965,3.2076,3.2085,3.2107,3.2124,3.2135,3.2154,3.2021,3.2021,3.2021,3.1967,3.1963,3.2025,3.2028,3.2057,3.2069,3.2092,3.2107,3.2094,3.212,3.2135,3.2217,3.2237,3.2245,3.2265,3.2154,3.2154,3.2154,3.2154,3.2077,3.2116,3.2097,3.2151,3.2147,3.2193,3.2207,3.2196,3.2239,3.2205,3.2224,3.2188,3.2258,3.2276,3.2157,3.2156,3.2156,3.2156,3.2156,3.2151,3.2169,3.2179,3.2222,3.2255,3.2256,3.2298,3.2292,3.2287,3.2307,3.2323,3.2322,3.2321,3.2315,3.2315,3.2315,3.2315,3.2316,3.2316,3.2224,3.2234,3.2269,3.2296,3.2315,3.2339,3.2352,3.237,3.2389,3.2382,3.2382,3.2367,3.2266,3.2241,3.232,3.2319,3.2319,3.2318,3.2318,3.2338,3.2311,3.2366,3.2385,3.2416,3.2451,3.2443,3.2481,3.2496,3.2517,3.2498,3.2424,3.2415,3.2407,3.2386,3.2498,3.2498,3.2498,3.2498,3.2401,3.2396,3.2451,3.2481,3.2511,3.2509,3.2573,3.2584,3.2592,3.2601,3.2584,3.2555,3.2547,3.2543,3.2532,3.2512,3.2655,3.2655,3.2655,3.2471,3.2469,3.2523,3.2529,3.2553,3.2575,3.2634,3.2671,3.2674,3.2661,3.2608,3.2601,3.2556,3.2541,3.2527,3.2509,3.2473,0,0]}]]